This is the latest recevied weather packets stored in our database for station/object KO4ZGL-13. If no packets are shown the sender has not sent any weather packets the latest 10 day(s).
| Time | Temp. | Humidity | Pressure | Rain* | Wind** | Luminosity | Snow |
|---|---|---|---|---|---|---|---|
| 1777994647 | 25.56° C | 60% | 1018.9 hPa | 0 mm | - | 747 W/m² | - |
| 1777994342 | 25° C | 61% | 1018.7 hPa | 0 mm | - | 742 W/m² | - |
| 1777994039 | 25° C | 61% | 1018.8 hPa | 0 mm | - | 763 W/m² | - |
| 1777993735 | 24.44° C | 62% | 1018.9 hPa | 0 mm | - | 748 W/m² | - |
| 1777993433 | 24.44° C | 61% | 1018.8 hPa | 0 mm | - | 797 W/m² | - |
| 1777993127 | 23.89° C | 64% | 1018.8 hPa | 0 mm | - | 812 W/m² | - |
| 1777992825 | 24.44° C | 64% | 1018.8 hPa | 0 mm | - | 808 W/m² | - |
| 1777992522 | 25° C | 62% | 1018.8 hPa | 0 mm | - | 761 W/m² | - |
| 1777992221 | 24.44° C | 65% | 1018.9 hPa | 0 mm | - | 770 W/m² | - |
| 1777991918 | 23.89° C | 65% | 1018.7 hPa | 0 mm | - | 747 W/m² | - |
| 1777991615 | 23.89° C | 66% | 1018.7 hPa | 0 mm | - | 618 W/m² | - |
| 1777991312 | 23.89° C | 65% | 1018.9 hPa | 0 mm | - | 514 W/m² | - |
| 1777991010 | 23.33° C | 64% | 1018.5 hPa | 0 mm | - | 678 W/m² | - |
| 1777990707 | 23.33° C | 66% | 1018.5 hPa | 0 mm | - | 656 W/m² | - |
| 1777990404 | 23.89° C | 68% | 1018.7 hPa | 0 mm | - | 635 W/m² | - |
| 1777989797 | 22.78° C | 70% | 1018.7 hPa | 0 mm | - | 581 W/m² | - |
| 1777989494 | 22.78° C | 70% | 1018.7 hPa | 0 mm | - | 568 W/m² | - |
| 1777989190 | 22.22° C | 69% | 1018.9 hPa | 0 mm | - | 552 W/m² | - |
| 1777988886 | 21.67° C | 72% | 1018.6 hPa | 0 mm | - | 532 W/m² | - |
| 1777988584 | 22.22° C | 71% | 1018.7 hPa | 0 mm | - | 469 W/m² | - |
| 1777988280 | 22.22° C | 73% | 1018.8 hPa | 0 mm | - | 496 W/m² | - |
| 1777987977 | 21.67° C | 75% | 1018.5 hPa | 0 mm | - | 452 W/m² | - |
| 1777987673 | 21.11° C | 74% | 1018.7 hPa | 0 mm | - | 311 W/m² | - |
| 1777987370 | 21.11° C | 75% | 1018.7 hPa | 0 mm | - | 380 W/m² | - |
| 1777987067 | 21.11° C | 78% | 1018.5 hPa | 0 mm | - | 356 W/m² | - |
* Rain latest hour (hover to see other rain measurements)
** Current wind speed in m/s (hover to see current wind gust speed)